Location: Mahannah Oil Field
(37.4664°N, 96.6003°W)
Time: 19:35:34
(UTC+00:00)

Vanguard 2 Rocket - Pass Details

Date: 21 January 2021
Orbit: 554 x 3326 km, 32.9° (Epoch: 26 February)

Event Time Altitude Azimuth Distance (km) Brightness Sun altitude
Rises 22:38:37 0° 245° (WSW) 6,205 13.3 9.6°
Reaches altitude 10° 22:43:28 10° 241° (WSW) 4,757 13.8 8.8°
Maximum altitude 22:55:06 54° 170° (S) 1,679 8.6 6.9°
Drops below altitude 10° 23:01:40 10° 94° (E) 2,760 8.9 5.7°
Sets 23:03:47 0° 89° (E) 3,475 9.3 5.4°
